QPF
0.14 0.15 0.15 0.13 0.13 0.12 0.10 0.09 0.06 0.05 0.04 0.04 0.05 0.03 0.02 0.02 0.02 0.02 0.02 0.02 0.05 0.06 0.07 0.07 0.08 0.09 0.10 0.09 0.10 0.11 0.12 0.10 0.08 0.06 0.05 0.07 0.09 0.08 0.09 0.11 0.10 0.10 0.07
0.08 0.08 0.09 0.10 0.08 0.06 0.05 0.06 0.05 0.06 0.05 0.04 0.04 0.03 0.03 0.03 0.02 0.02 0.02 0.04 0.05 0.05 0.06 0.06 0.07 0.08 0.09 0.09 0.10 0.11 0.13 0.13 0.13 0.11 0.10 0.10 0.09 0.08 0.10 0.09 0.10 0.10 0.08
0.05 0.05 0.05 0.06 0.04 0.03 0.03 0.03 0.04 0.05 0.05 0.04 0.03 0.02 0.02 0.02 0.03 0.03 0.03 0.04 0.04 0.03 0.04 0.05 0.05 0.05 0.07 0.09 0.14 0.16 0.17 0.16 0.15 0.15 0.15 0.16 0.11 0.09 0.08 0.09 0.09 0.08 0.08
0.03 0.03 0.03 0.04 0.03 0.03 0.04 0.04 0.03 0.04 0.04 0.03 0.03 0.02 0.02 0.03 0.02 0.02 0.02 0.03 0.03 0.02 0.03 0.03 0.03 0.04 0.06 0.07 0.07 0.10 0.14 0.17 0.17 0.16 0.17 0.16 0.12 0.09 0.06 0.06 0.08 0.07 0.07
0.02 0.02 0.02 0.03 0.02 0.02 0.03 0.03 0.02 0.03 0.04 0.04 0.02 0.02 0.02 0.02 0.03 0.02 0.02 0.02 0.02 0.02 0.03 0.02 0.02 0.02 0.03 0.04 0.05 0.06 0.08 0.09 0.12 0.14 0.15 0.15 0.15 0.12 0.09 0.07 0.06 0.06 0.06
0.02 0.02 0.03 0.02 0.02 0.03 0.03 0.03 0.03 0.04 0.04 0.04 0.03 0.02 0.02 0.03 0.03 0.03 0.02 0.02 0.01 0.01 0.02 0.02 0.03 0.03 0.02 0.03 0.04 0.05 0.06 0.07 0.08 0.10 0.12 0.15 0.16 0.16 0.16 0.15 0.12 0.09 0.07
0.02 0.03 0.02 0.02 0.03 0.03 0.04 0.04 0.03 0.04 0.04 0.04 0.04 0.03 0.03 0.03 0.03 0.02 0.01 0.01 0.01 0.02 0.02 0.02 0.03 0.02 0.02 0.02 0.03 0.04 0.06 0.07 0.07 0.07 0.07 0.09 0.08 0.09 0.09 0.10 0.10 0.10 0.10
0.02 0.02 0.03 0.02 0.02 0.02 0.03 0.03 0.03 0.03 0.03 0.04 0.06 0.06 0.04 0.03 0.03 0.02 0.02 0.02 0.02 0.03 0.03 0.03 0.02 0.02 0.03 0.03 0.02 0.02 0.04 0.06 0.09 0.12 0.12 0.12 0.11 0.08 0.06 0.05 0.07 0.12 0.15
0.02 0.03 0.03 0.02 0.02 0.02 0.02 0.03 0.03 0.03 0.04 0.04 0.05 0.06 0.05 0.05 0.03 0.03 0.03 0.03 0.04 0.04 0.04 0.04 0.03 0.02 0.02 0.03 0.03 0.02 0.02 0.03 0.06 0.11 0.16 0.18 0.19 0.16 0.11 0.08 0.10 0.17 0.19
0.02 0.02 0.03 0.03 0.03 0.02 0.02 0.03 0.03 0.04 0.05 0.04 0.04 0.04 0.04 0.05 0.04 0.04 0.03 0.03 0.03 0.03 0.03 0.03 0.02 0.02 0.03 0.04 0.03 0.03 0.02 0.02 0.02 0.05 0.12 0.19 0.24 0.23 0.22 0.18 0.11 0.09 0.09
0.02 0.02 0.02 0.03 0.03 0.02 0.03 0.03 0.04 0.05 0.05 0.05 0.05 0.05 0.05 0.05 0.05 0.04 0.03 0.02 0.03 0.03 0.02 0.02 0.02 0.02 0.03 0.04 0.04 0.04 0.03 0.03 0.02 0.03 0.06 0.11 0.16 0.23 0.22 0.17 0.15 0.11 0.08
0.03 0.03 0.03 0.05 0.04 0.04 0.04 0.04 0.04 0.05 0.04 0.04 0.05 0.05 0.05 0.04 0.04 0.03 0.02 0.02 0.03 0.03 0.03 0.03 0.02 0.02 0.02 0.02 0.02 0.04 0.04 0.05 0.05 0.05 0.05 0.05 0.08 0.11 0.19 0.19 0.16 0.14 0.13
0.03 0.03 0.03 0.05 0.04 0.03 0.03 0.04 0.04 0.04 0.03 0.04 0.05 0.04 0.03 0.02 0.02 0.02 0.02 0.01 0.01 0.01 0.02 0.01 0.01 0.01 0.01 0.01 0.02 0.02 0.02 0.02 0.02 0.03 0.04 0.05 0.05 0.06 0.07 0.13 0.16 0.16 0.14
0.03 0.02 0.03 0.03 0.03 0.04 0.04 0.04 0.03 0.03 0.03 0.03 0.03 0.04 0.02 0.01 0.01 0.01 0.01 0.02 0.02 0.01 0.01 0.01 0.01 0.01 0.03 0.02 0.02 0.01 0.01 0.02 0.02 0.02 0.03 0.03 0.03 0.03 0.04 0.06 0.11 0.15 0.14
0.02 0.03 0.03 0.04 0.06 0.08 0.08 0.06 0.04 0.03 0.03 0.03 0.03 0.03 0.03 0.02 0.02 0.02 0.02 0.02 0.02 0.02 0.02 0.02 0.01 0.01 0.02 0.03 0.03 0.02 0.01 0.02 0.02 0.01 0.02 0.02 0.02 0.02 0.02 0.03 0.03 0.09 0.15
0.01 0.02 0.03 0.03 0.05 0.06 0.06 0.06 0.03 0.02 0.02 0.03 0.03 0.03 0.03 0.02 0.03 0.03 0.02 0.03 0.03 0.02 0.02 0.02 0.02 0.01 0.02 0.01 0.02 0.02 0.01 0.01 0.01 0.01 0.01 0.02 0.02 0.02 0.02 0.02 0.02 0.04 0.06
0.02 0.02 0.02 0.03 0.06 0.08 0.07 0.05 0.03 0.02 0.02 0.03 0.03 0.03 0.03 0.03 0.03 0.02 0.03 0.03 0.02 0.02 0.02 0.01 0.01 0.01 0.01 0.02 0.02 0.02 0.01 0.01 0.01 0.00 0.00 0.01 0.01 0.01 0.02 0.03 0.03 0.03 0.04
0.02 0.02 0.02 0.03 0.05 0.05 0.06 0.05 0.04 0.03 0.04 0.04 0.04 0.04 0.03 0.03 0.02 0.03 0.05 0.05 0.02 0.02 0.02 0.01 0.01 0.01 0.02 0.02 0.03 0.02 0.01 0.01 0.01 0.00 0.00 0.01 0.01 0.02 0.02 0.03 0.03 0.04 0.03
0.02 0.02 0.02 0.02 0.02 0.03 0.04 0.05 0.05 0.04 0.04 0.03 0.03 0.04 0.03 0.03 0.04 0.06 0.07 0.05 0.02 0.02 0.02 0.01 0.01 0.02 0.02 0.02 0.02 0.01 0.01 0.01 0.01 0.00 0.00 0.00 0.01 0.02 0.02 0.02 0.02 0.03 0.04
0.02 0.02 0.02 0.02 0.02 0.02 0.02 0.03 0.04 0.05 0.04 0.03 0.04 0.04 0.03 0.04 0.05 0.05 0.05 0.03 0.02 0.02 0.01 0.01 0.02 0.02 0.02 0.01 0.01 0.01 0.02 0.02 0.01 0.01 0.01 0.01 0.01 0.02 0.02 0.02 0.03 0.04 0.05
0.02 0.02 0.02 0.02 0.01 0.02 0.02 0.03 0.04 0.04 0.04 0.05 0.05 0.04 0.04 0.05 0.04 0.03 0.02 0.02 0.02 0.02 0.01 0.01 0.01 0.01 0.02 0.02 0.02 0.01 0.02 0.02 0.01 0.01 0.01 0.02 0.02 0.02 0.03 0.04 0.04 0.04 0.05
0.03 0.02 0.01 0.02 0.01 0.02 0.03 0.02 0.02 0.03 0.04 0.04 0.04 0.04 0.04 0.04 0.02 0.02 0.01 0.02 0.02 0.02 0.01 0.01 0.01 0.01 0.03 0.02 0.02 0.02 0.02 0.01 0.01 0.01 0.01 0.01 0.02 0.02 0.03 0.03 0.03 0.02 0.03
0.03 0.03 0.02 0.03 0.03 0.02 0.03 0.01 0.02 0.02 0.02 0.03 0.03 0.03 0.03 0.04 0.04 0.04 0.02 0.01 0.01 0.01 0.01 0.02 0.02 0.01 0.02 0.02 0.02 0.02 0.01 0.01 0.01 0.02 0.01 0.01 0.01 0.02 0.02 0.02 0.01 0.01 0.01
0.04 0.04 0.03 0.03 0.02 0.02 0.02 0.01 0.02 0.03 0.02 0.02 0.02 0.03 0.04 0.06 0.05 0.03 0.02 0.02 0.02 0.01 0.02 0.03 0.02 0.03 0.03 0.02 0.02 0.02 0.01 0.01 0.01 0.01 0.02 0.02 0.01 0.02 0.02 0.02 0.02 0.01 0.01
0.03 0.03 0.03 0.03 0.02 0.02 0.02 0.02 0.02 0.02 0.02 0.02 0.02 0.03 0.03 0.04 0.04 0.04 0.04 0.03 0.02 0.01 0.02 0.03 0.03 0.03 0.02 0.01 0.01 0.01 0.02 0.02 0.01 0.00 0.01 0.01 0.01 0.01 0.02 0.01 0.01 0.01 0.02
0.02 0.02 0.02 0.03 0.03 0.03 0.03 0.02 0.02 0.01 0.02 0.02 0.01 0.02 0.02 0.02 0.03 0.03 0.04 0.03 0.03 0.02 0.02 0.03 0.03 0.02 0.02 0.01 0.01 0.00 0.02 0.02 0.01 0.01 0.00 0.01 0.01 0.01 0.01 0.01 0.01 0.02 0.02
MSLP
1012.95 1013.09 1013.28 1013.51 1013.81 1014.14 1014.50 1014.84 1015.13 1015.31 1015.37 1015.29 1015.10 1014.85 1014.59 1014.41 1014.35 1014.47 1014.76 1015.18 1015.69 1016.21 1016.69 1017.09 1017.37 1017.56 1017.69 1017.80 1017.92 1018.08 1018.29 1018.53 1018.78 1019.01 1019.19 1019.33 1019.42 1019.48 1019.55 1019.64 1019.77 1019.95 1020.17
1013.51 1013.70 1013.93 1014.20 1014.51 1014.84 1015.19 1015.52 1015.79 1015.96 1016.01 1015.92 1015.72 1015.44 1015.16 1014.91 1014.78 1014.80 1014.97 1015.28 1015.68 1016.13 1016.56 1016.93 1017.24 1017.47 1017.65 1017.81 1017.98 1018.18 1018.41 1018.65 1018.89 1019.11 1019.28 1019.41 1019.49 1019.56 1019.62 1019.71 1019.84 1020.02 1020.23
1013.89 1014.14 1014.41 1014.70 1015.02 1015.35 1015.68 1015.99 1016.24 1016.40 1016.45 1016.38 1016.19 1015.94 1015.65 1015.39 1015.21 1015.16 1015.23 1015.44 1015.73 1016.09 1016.45 1016.79 1017.09 1017.34 1017.54 1017.74 1017.93 1018.13 1018.35 1018.58 1018.80 1019.00 1019.16 1019.28 1019.38 1019.47 1019.56 1019.67 1019.82 1020.00 1020.22
1014.12 1014.41 1014.70 1015.01 1015.32 1015.62 1015.92 1016.19 1016.42 1016.57 1016.63 1016.59 1016.46 1016.26 1016.02 1015.79 1015.62 1015.53 1015.56 1015.68 1015.89 1016.16 1016.46 1016.74 1017.00 1017.23 1017.42 1017.60 1017.76 1017.93 1018.11 1018.29 1018.47 1018.64 1018.79 1018.92 1019.04 1019.17 1019.30 1019.46 1019.65 1019.87 1020.10
1014.26 1014.55 1014.85 1015.13 1015.41 1015.67 1015.92 1016.14 1016.33 1016.47 1016.55 1016.56 1016.51 1016.40 1016.25 1016.11 1015.99 1015.93 1015.95 1016.04 1016.20 1016.40 1016.63 1016.85 1017.05 1017.22 1017.35 1017.46 1017.56 1017.65 1017.74 1017.84 1017.95 1018.08 1018.21 1018.35 1018.50 1018.67 1018.87 1019.09 1019.33 1019.58 1019.84
1014.37 1014.63 1014.89 1015.13 1015.36 1015.56 1015.74 1015.90 1016.05 1016.17 1016.27 1016.33 1016.36 1016.37 1016.35 1016.33 1016.32 1016.35 1016.41 1016.52 1016.67 1016.83 1017.01 1017.16 1017.29 1017.37 1017.41 1017.42 1017.40 1017.38 1017.35 1017.35 1017.37 1017.43 1017.53 1017.67 1017.84 1018.06 1018.31 1018.58 1018.86 1019.15 1019.43
1014.49 1014.70 1014.90 1015.09 1015.25 1015.38 1015.49 1015.58 1015.67 1015.77 1015.88 1015.99 1016.11 1016.23 1016.35 1016.48 1016.62 1016.77 1016.93 1017.10 1017.27 1017.44 1017.59 1017.69 1017.75 1017.74 1017.68 1017.56 1017.41 1017.25 1017.09 1016.96 1016.87 1016.85 1016.90 1017.02 1017.20 1017.44 1017.71 1018.01 1018.31 1018.61 1018.89
1014.67 1014.82 1014.96 1015.08 1015.18 1015.24 1015.28 1015.30 1015.34 1015.40 1015.50 1015.65 1015.83 1016.06 1016.32 1016.59 1016.88 1017.17 1017.45 1017.72 1017.96 1018.17 1018.32 1018.40 1018.41 1018.33 1018.17 1017.94 1017.66 1017.36 1017.06 1016.80 1016.61 1016.50 1016.48 1016.56 1016.71 1016.93 1017.19 1017.47 1017.75 1018.02 1018.28
1014.92 1015.01 1015.11 1015.19 1015.23 1015.24 1015.22 1015.18 1015.16 1015.17 1015.25 1015.39 1015.62 1015.92 1016.27 1016.67 1017.10 1017.52 1017.93 1018.31 1018.65 1018.92 1019.10 1019.20 1019.19 1019.07 1018.85 1018.54 1018.16 1017.75 1017.35 1016.98 1016.69 1016.49 1016.39 1016.40 1016.49 1016.65 1016.85 1017.06 1017.27 1017.47 1017.67
1015.25 1015.31 1015.38 1015.43 1015.45 1015.42 1015.36 1015.27 1015.19 1015.14 1015.17 1015.30 1015.52 1015.84 1016.25 1016.73 1017.25 1017.78 1018.30 1018.79 1019.22 1019.57 1019.82 1019.96 1019.98 1019.86 1019.63 1019.28 1018.86 1018.40 1017.93 1017.49 1017.12 1016.85 1016.68 1016.60 1016.61 1016.67 1016.76 1016.86 1016.96 1017.06 1017.16
1015.62 1015.67 1015.74 1015.80 1015.81 1015.78 1015.68 1015.56 1015.42 1015.32 1015.29 1015.35 1015.54 1015.84 1016.25 1016.75 1017.31 1017.91 1018.51 1019.08 1019.59 1020.02 1020.36 1020.57 1020.64 1020.57 1020.38 1020.06 1019.65 1019.19 1018.71 1018.25 1017.85 1017.53 1017.30 1017.14 1017.05 1017.00 1016.97 1016.93 1016.89 1016.85 1016.83
1016.00 1016.08 1016.17 1016.25 1016.28 1016.24 1016.14 1015.99 1015.81 1015.65 1015.55 1015.54 1015.65 1015.90 1016.26 1016.74 1017.29 1017.90 1018.53 1019.15 1019.72 1020.22 1020.63 1020.92 1021.08 1021.10 1020.98 1020.74 1020.40 1019.99 1019.56 1019.13 1018.75 1018.42 1018.15 1017.94 1017.77 1017.61 1017.45 1017.27 1017.09 1016.91 1016.77
1016.37 1016.48 1016.61 1016.71 1016.77 1016.75 1016.65 1016.48 1016.27 1016.06 1015.90 1015.82 1015.85 1016.01 1016.30 1016.71 1017.21 1017.79 1018.41 1019.03 1019.62 1020.17 1020.64 1021.01 1021.25 1021.37 1021.36 1021.23 1021.00 1020.70 1020.36 1020.01 1019.68 1019.38 1019.11 1018.88 1018.65 1018.41 1018.16 1017.87 1017.57 1017.27 1017.03
1016.71 1016.86 1017.01 1017.15 1017.22 1017.22 1017.13 1016.96 1016.73 1016.49 1016.28 1016.14 1016.10 1016.18 1016.38 1016.71 1017.13 1017.64 1018.21 1018.79 1019.38 1019.94 1020.44 1020.86 1021.19 1021.41 1021.51 1021.50 1021.40 1021.23 1021.01 1020.76 1020.52 1020.28 1020.06 1019.84 1019.60 1019.33 1019.02 1018.67 1018.29 1017.92 1017.59
1017.02 1017.19 1017.37 1017.51 1017.60 1017.61 1017.54 1017.38 1017.16 1016.91 1016.68 1016.50 1016.41 1016.42 1016.55 1016.79 1017.13 1017.55 1018.04 1018.56 1019.10 1019.64 1020.15 1020.60 1020.98 1021.28 1021.48 1021.59 1021.61 1021.57 1021.47 1021.34 1021.20 1021.06 1020.90 1020.73 1020.53 1020.27 1019.97 1019.61 1019.21 1018.81 1018.45
1017.32 1017.50 1017.68 1017.82 1017.92 1017.94 1017.88 1017.74 1017.54 1017.31 1017.09 1016.91 1016.80 1016.78 1016.85 1017.02 1017.28 1017.61 1018.01 1018.45 1018.93 1019.41 1019.89 1020.35 1020.75 1021.10 1021.38 1021.57 1021.70 1021.76 1021.77 1021.75 1021.71 1021.66 1021.59 1021.49 1021.36 1021.16 1020.91 1020.60 1020.24 1019.86 1019.51
1017.63 1017.80 1017.97 1018.11 1018.20 1018.22 1018.18 1018.07 1017.91 1017.73 1017.55 1017.41 1017.31 1017.29 1017.33 1017.45 1017.64 1017.90 1018.21 1018.56 1018.96 1019.37 1019.80 1020.23 1020.63 1021.00 1021.31 1021.56 1021.75 1021.88 1021.97 1022.03 1022.07 1022.10 1022.11 1022.09 1022.04 1021.94 1021.78 1021.55 1021.28 1020.98 1020.68
1017.95 1018.12 1018.27 1018.40 1018.48 1018.52 1018.50 1018.43 1018.32 1018.20 1018.09 1018.00 1017.94 1017.94 1017.98 1018.08 1018.22 1018.41 1018.64 1018.91 1019.22 1019.57 1019.94 1020.32 1020.70 1021.05 1021.37 1021.64 1021.85 1022.02 1022.15 1022.25 1022.33 1022.41 1022.48 1022.53 1022.57 1022.56 1022.51 1022.41 1022.25 1022.05 1021.85
1018.31 1018.47 1018.62 1018.74 1018.82 1018.87 1018.87 1018.85 1018.80 1018.75 1018.70 1018.68 1018.68 1018.71 1018.77 1018.86 1018.97 1019.10 1019.27 1019.47 1019.71 1019.98 1020.29 1020.62 1020.95 1021.28 1021.58 1021.84 1022.05 1022.22 1022.35 1022.45 1022.54 1022.64 1022.74 1022.84 1022.94 1023.03 1023.08 1023.10 1023.07 1023.00 1022.89
1018.69 1018.86 1019.00 1019.13 1019.22 1019.28 1019.32 1019.33 1019.34 1019.36 1019.38 1019.42 1019.47 1019.54 1019.62 1019.71 1019.80 1019.90 1020.01 1020.15 1020.33 1020.54 1020.79 1021.07 1021.37 1021.66 1021.93 1022.16 1022.35 1022.49 1022.59 1022.67 1022.74 1022.81 1022.91 1023.04 1023.18 1023.33 1023.48 1023.60 1023.69 1023.74 1023.75
1019.07 1019.26 1019.42 1019.56 1019.67 1019.75 1019.82 1019.87 1019.93 1019.99 1020.07 1020.16 1020.26 1020.36 1020.46 1020.54 1020.62 1020.69 1020.76 1020.86 1020.98 1021.15 1021.35 1021.59 1021.85 1022.11 1022.35 1022.55 1022.71 1022.81 1022.87 1022.90 1022.92 1022.97 1023.04 1023.15 1023.31 1023.50 1023.70 1023.91 1024.10 1024.25 1024.37
1019.43 1019.65 1019.84 1020.00 1020.13 1020.24 1020.33 1020.42 1020.50 1020.61 1020.72 1020.85 1020.98 1021.10 1021.20 1021.29 1021.35 1021.40 1021.44 1021.50 1021.59 1021.72 1021.89 1022.09 1022.32 1022.56 1022.77 1022.94 1023.06 1023.13 1023.15 1023.13 1023.11 1023.11 1023.14 1023.23 1023.37 1023.57 1023.81 1024.06 1024.32 1024.55 1024.75
1019.76 1020.02 1020.24 1020.43 1020.58 1020.71 1020.81 1020.92 1021.03 1021.15 1021.29 1021.44 1021.58 1021.71 1021.82 1021.90 1021.95 1021.98 1022.00 1022.04 1022.10 1022.20 1022.34 1022.52 1022.73 1022.94 1023.13 1023.28 1023.38 1023.42 1023.41 1023.36 1023.30 1023.25 1023.24 1023.29 1023.41 1023.59 1023.83 1024.11 1024.39 1024.67 1024.92
1020.04 1020.35 1020.60 1020.81 1020.98 1021.12 1021.24 1021.36 1021.48 1021.61 1021.76 1021.91 1022.06 1022.20 1022.30 1022.38 1022.43 1022.45 1022.46 1022.47 1022.51 1022.59 1022.70 1022.86 1023.05 1023.24 1023.42 1023.56 1023.64 1023.67 1023.64 1023.57 1023.49 1023.41 1023.37 1023.39 1023.47 1023.63 1023.84 1024.10 1024.38 1024.66 1024.92
1020.31 1020.64 1020.92 1021.15 1021.33 1021.47 1021.60 1021.72 1021.84 1021.97 1022.12 1022.28 1022.44 1022.58 1022.70 1022.78 1022.83 1022.85 1022.85 1022.85 1022.87 1022.93 1023.02 1023.15 1023.31 1023.48 1023.64 1023.77 1023.85 1023.88 1023.85 1023.78 1023.70 1023.61 1023.55 1023.54 1023.59 1023.70 1023.87 1024.09 1024.32 1024.57 1024.80
1020.56 1020.92 1021.21 1021.45 1021.63 1021.78 1021.90 1022.01 1022.13 1022.27 1022.43 1022.59 1022.76 1022.92 1023.05 1023.14 1023.20 1023.23 1023.23 1023.23 1023.24 1023.27 1023.33 1023.44 1023.56 1023.71 1023.84 1023.96 1024.04 1024.07 1024.06 1024.00 1023.93 1023.85 1023.79 1023.76 1023.78 1023.84 1023.95 1024.10 1024.27 1024.45 1024.62
Thickness
5789 5788 5785 5784 5784 5783 5782 5780 5779 5778 5778 5778 5777 5777 5777 5777 5775 5774 5769 5765 5763 5761 5759 5758 5756 5755 5753 5752 5751 5749 5748 5746 5744 5742 5740 5738 5736 5734 5732 5730 5729 5727 5726
5786 5785 5784 5781 5781 5781 5780 5779 5778 5777 5777 5776 5775 5776 5775 5775 5772 5771 5770 5766 5762 5760 5758 5757 5755 5754 5753 5751 5750 5748 5747 5745 5743 5742 5740 5738 5736 5733 5731 5730 5728 5727 5725
5785 5784 5783 5781 5780 5779 5778 5777 5777 5777 5776 5775 5774 5774 5774 5772 5771 5770 5769 5768 5765 5761 5759 5757 5755 5753 5752 5750 5749 5748 5746 5744 5743 5741 5740 5738 5736 5733 5731 5729 5728 5727 5725
5784 5783 5783 5782 5780 5780 5779 5777 5777 5775 5774 5774 5773 5773 5772 5771 5770 5769 5769 5767 5766 5765 5760 5757 5755 5753 5751 5750 5748 5747 5745 5744 5742 5741 5739 5737 5735 5733 5731 5729 5727 5726 5725
5783 5783 5782 5780 5780 5780 5779 5778 5776 5774 5772 5771 5771 5771 5772 5771 5770 5770 5768 5768 5766 5764 5762 5758 5755 5753 5751 5749 5747 5746 5744 5743 5741 5740 5738 5736 5734 5732 5730 5728 5727 5725 5724
5782 5782 5781 5779 5780 5779 5777 5775 5772 5771 5772 5772 5773 5771 5772 5771 5771 5770 5769 5768 5766 5765 5763 5761 5758 5754 5751 5749 5746 5745 5743 5742 5740 5739 5737 5735 5733 5731 5729 5728 5726 5724 5723
5780 5780 5781 5778 5778 5776 5775 5775 5773 5771 5771 5772 5770 5768 5770 5772 5771 5769 5769 5768 5767 5764 5762 5760 5759 5756 5753 5749 5746 5744 5742 5741 5739 5738 5736 5734 5732 5730 5728 5726 5724 5723 5722
5779 5780 5777 5778 5777 5774 5773 5772 5771 5771 5772 5772 5768 5765 5762 5764 5766 5770 5768 5766 5766 5765 5763 5761 5757 5754 5752 5751 5747 5744 5741 5739 5738 5736 5734 5732 5730 5728 5726 5725 5723 5722 5721
5777 5776 5776 5776 5774 5775 5773 5771 5770 5769 5768 5770 5771 5766 5761 5758 5761 5765 5764 5764 5763 5762 5762 5761 5757 5754 5751 5749 5746 5742 5739 5737 5735 5734 5732 5730 5728 5726 5724 5722 5722 5720 5719
5776 5775 5774 5773 5773 5774 5770 5771 5771 5769 5766 5766 5768 5767 5766 5764 5758 5756 5760 5762 5761 5759 5759 5758 5757 5754 5750 5748 5743 5739 5736 5734 5732 5730 5729 5727 5725 5724 5722 5721 5719 5718 5717
5774 5773 5772 5771 5769 5770 5768 5767 5766 5766 5766 5765 5765 5764 5762 5761 5761 5755 5752 5754 5757 5758 5757 5755 5753 5752 5749 5746 5742 5738 5733 5731 5728 5726 5725 5723 5722 5720 5719 5718 5717 5716 5715
5773 5772 5770 5768 5767 5767 5765 5764 5764 5763 5762 5761 5761 5762 5760 5759 5757 5756 5752 5750 5750 5752 5753 5752 5751 5749 5747 5744 5740 5734 5730 5727 5725 5722 5720 5719 5717 5716 5715 5715 5714 5713 5712
5769 5768 5768 5765 5765 5763 5763 5762 5761 5760 5759 5757 5757 5758 5759 5758 5758 5756 5753 5749 5747 5750 5748 5750 5748 5745 5743 5740 5736 5730 5727 5724 5721 5719 5717 5715 5713 5712 5711 5711 5710 5709 5709
5767 5765 5764 5762 5761 5761 5760 5759 5759 5757 5756 5754 5754 5753 5753 5754 5754 5753 5750 5747 5743 5744 5744 5743 5744 5742 5738 5736 5731 5727 5725 5721 5718 5715 5713 5711 5710 5708 5707 5706 5706 5705 5705
5764 5762 5760 5759 5758 5757 5756 5754 5754 5752 5751 5751 5751 5749 5749 5749 5749 5749 5748 5746 5740 5736 5736 5737 5737 5736 5733 5730 5726 5725 5722 5718 5715 5712 5710 5708 5706 5705 5704 5703 5702 5701 5700
5758 5757 5756 5755 5753 5752 5751 5750 5749 5748 5746 5745 5743 5742 5741 5744 5743 5743 5742 5741 5739 5735 5731 5733 5731 5731 5726 5726 5722 5720 5718 5714 5711 5709 5706 5704 5703 5702 5700 5699 5698 5696 5695
5753 5752 5751 5750 5749 5748 5747 5745 5745 5742 5740 5739 5737 5736 5734 5734 5735 5736 5735 5734 5732 5730 5726 5726 5727 5725 5720 5718 5717 5716 5715 5713 5710 5705 5702 5700 5698 5697 5696 5695 5693 5691 5690
5748 5747 5746 5745 5744 5743 5741 5740 5738 5737 5735 5733 5731 5730 5728 5728 5726 5727 5727 5726 5725 5723 5721 5716 5718 5718 5715 5713 5711 5710 5711 5710 5707 5701 5698 5695 5693 5692 5690 5689 5687 5686 5685
5743 5743 5741 5740 5738 5737 5735 5734 5732 5730 5729 5728 5726 5724 5722 5721 5719 5720 5718 5718 5718 5718 5716 5714 5713 5712 5710 5709 5706 5706 5706 5703 5703 5699 5695 5691 5689 5687 5686 5684 5682 5681 5679
5738 5736 5736 5734 5733 5731 5729 5728 5726 5724 5722 5721 5719 5717 5716 5714 5713 5712 5711 5710 5710 5710 5709 5709 5708 5706 5704 5702 5700 5700 5699 5698 5697 5697 5692 5689 5686 5683 5682 5680 5678 5676 5674
5733 5730 5729 5728 5727 5725 5723 5721 5718 5717 5715 5714 5712 5711 5710 5707 5705 5704 5705 5704 5703 5703 5704 5703 5702 5701 5698 5694 5694 5695 5693 5693 5692 5691 5689 5687 5685 5683 5680 5676 5673 5670 5669
5725 5724 5722 5721 5720 5719 5715 5711 5710 5710 5708 5706 5705 5704 5703 5701 5698 5696 5694 5694 5693 5694 5695 5694 5695 5693 5689 5689 5688 5688 5687 5685 5684 5685 5681 5681 5681 5679 5677 5674 5668 5665 5663
5718 5717 5715 5714 5712 5710 5706 5704 5702 5702 5702 5700 5698 5696 5697 5697 5693 5693 5690 5687 5686 5685 5684 5685 5686 5684 5684 5683 5680 5680 5678 5677 5676 5678 5675 5675 5675 5672 5671 5667 5663 5660 5658
5712 5710 5708 5707 5705 5703 5699 5697 5695 5695 5695 5693 5691 5690 5688 5687 5687 5684 5685 5684 5683 5683 5681 5679 5679 5678 5678 5676 5673 5672 5671 5670 5670 5670 5668 5667 5668 5666 5665 5661 5656 5654 5652
5706 5704 5703 5700 5698 5696 5693 5690 5687 5689 5688 5686 5685 5683 5682 5680 5677 5675 5676 5676 5676 5677 5675 5673 5671 5669 5668 5666 5665 5665 5665 5663 5663 5664 5662 5660 5661 5659 5657 5656 5652 5648 5646
5700 5699 5697 5695 5692 5690 5685 5683 5680 5683 5682 5680 5679 5678 5674 5672 5669 5666 5668 5669 5668 5669 5669 5668 5665 5663 5662 5661 5658 5657 5658 5657 5657 5656 5656 5652 5652 5651 5650 5650 5647 5644 5642